Location: Decatur Area Astronomy Club
(40.0275°N, 88.7810°W)
Time: 03:39:57
(UTC-05:00)

Daily predictions for brighter satellites

Satellite Brightness Start Highest point End
(mag) Time Altitude Azimuth Time Altitude Azimuth Time Altitude Azimuth
Terra 3.8 00:05:35 17° WSW 00:06:26 18° W 00:09:41 10° NW
CZ-2C R/B 4.2 00:05:18 10° NE 00:08:48 21° E 00:08:48 21° E
Cosmos 1340 Rocket 4.0 00:10:33 36° NE 00:10:33 36° NE 00:13:09 10° NNE
Cosmos 2297 Rocket 3.8 00:05:33 12° WSW 00:09:58 30° WNW 00:14:55 10° N
H-2A R/B 3.2 00:05:50 10° NNE 00:09:09 46° ENE 00:09:09 46° ENE
Cosmos 1733 Rocket 3.7 00:14:20 49° NE 00:14:20 49° NE 00:17:58 10° NNE
Aureole 2 Rocket 4.2 00:10:25 10° NNW 00:12:08 30° NNW 00:12:08 30° NNW
Cosmos 2219 Rocket 4.4 00:13:22 10° WNW 00:15:08 11° W 00:16:27 11° WSW
CZ-4C R/B 4.4 00:19:37 38° N 00:19:37 38° N 00:21:56 10° NNW
ATLAS 2AS CENTAUR R/B 4.2 00:11:16 10° WSW 00:18:22 40° NW 00:25:56 10° NNE
Cosmos 1943 4.4 00:16:16 10° N 00:21:22 33° ENE 00:23:06 28° E
Helios 1A Rocket 4.3 00:19:06 10° NNE 00:21:50 32° ENE 00:21:50 32° ENE
BREEZE-M TANK 4.0 00:13:23 10° W 00:23:48 51° NNW 00:27:02 10° ENE
Cosmos 2341 Rocket 4.4 00:25:29 45° ESE 00:26:20 48° E 00:32:24 10° NNE
ALOS 2 2.9 00:30:07 66° NNW 00:30:07 66° NNW 00:33:56 10° NNW
Meteor 1-27 Rocket 4.4 00:25:52 10° N 00:31:24 42° ENE 00:32:16 39° E
ATLAS 3B R/B 3.2 00:25:37 10° NW 00:31:58 40° WSW 00:32:30 40° SW
Uosat 12 SS-18 rocket 4.4 00:32:04 66° WNW 00:32:13 66° WNW 00:36:42 10° NNE
Cosmos 1603 3.5 00:27:48 10° NNW 00:33:32 86° WSW 00:33:53 79° S
Cosmos 1689 Rocket 4.4 00:36:12 28° N 00:36:12 28° N 00:37:53 10° N
Cosmos 1606 4.4 00:32:18 10° NNE 00:34:52 29° NE 00:34:52 29° NE
Meteor 2-6 Rocket 4.2 00:37:47 10° N 00:43:40 76° E 00:44:18 69° SE
USA 238 DEB 3.6 00:37:36 10° NW 00:44:37 72° WSW 00:45:45 61° S
USA 238 3.6 00:37:43 10° NW 00:44:43 73° WSW 00:45:52 61° S
Geosat 4.2 00:42:40 10° NNE 00:47:11 59° E 00:47:11 59° E
Cosmos 1892 4.2 00:52:20 33° NW 00:52:20 33° NW 00:54:54 10° N
Cosmos 2251 Rocket 3.9 00:48:05 10° NNW 00:52:57 51° W 00:52:57 51° W
Cosmos 1408 4.4 00:55:31 27° NE 00:55:31 27° NE 00:57:39 10° NNE
Okean 2 Rocket 4.4 00:55:06 32° ENE 00:55:06 32° ENE 00:58:30 10° NNE
Cosmos 44 3.9 01:00:25 52° W 01:01:13 58° NW 01:06:37 10° NNE
Cosmos 921 Rocket 3.7 01:02:02 50° NNW 01:02:02 50° NNW 01:05:24 10° N
Cosmos 1674 Rocket 4.3 00:59:26 10° NNW 01:02:59 48° NW 01:02:59 48° NW
SeaSat 1 3.8 01:06:12 28° W 01:06:12 28° W 01:09:33 10° NW
Nadezhda 3 Rocket 4.0 01:01:59 10° NNW 01:08:09 69° W 01:08:56 62° SW
CZ-4B R/B 3.9 01:10:53 18° NW 01:10:53 18° NW 01:12:06 10° NW
Cosmos 1238 Rocket 4.1 01:05:26 10° N 01:07:47 34° N 01:07:47 34° N
Cosmos 494 Rocket 4.4 01:05:30 10° NNW 01:10:13 51° W 01:10:13 51° W
Cosmos 1825 3.5 01:13:16 38° NNE 01:13:16 38° NNE 01:15:47 10° NNE
Cosmos 1607 3.8 01:06:15 10° NW 01:12:21 65° WSW 01:12:34 65° SW
CZ-2C R/B 3.5 01:12:41 54° ESE 01:13:38 61° ENE 01:19:09 10° N
Cosmos 1975 Rocket 3.6 01:10:53 10° N 01:14:38 53° NE 01:14:38 53° NE
Cosmos 1867 4.1 01:10:08 10° NNW 01:15:32 55° NE 01:16:46 45° E
NOSS 3-2 (C) 4.1 01:10:48 10° NNW 01:18:21 73° NE 01:22:15 34° SE
GEOS 3 Rocket 4.3 01:19:33 41° W 01:19:33 41° W 01:23:39 10° NW
Cosmos 1908 Rocket 4.2 01:21:52 50° NW 01:21:52 50° NW 01:25:28 10° N
MOS 1-B Rocket 3.9 01:25:22 61° WSW 01:25:38 62° WSW 01:31:12 10° NNW
Cosmos 2263 Rocket 2.0 01:27:59 79° S 01:28:22 86° ESE 01:34:05 10° NNE
Cosmos 1242 Rocket 4.4 01:30:26 10° NNE 01:32:43 26° NE 01:32:43 26° NE
Okean 3 4.1 01:33:37 10° NNW 01:37:03 51° NW 01:37:03 51° NW
NOSS 3-4 (A) 3.7 01:38:07 49° WSW 01:39:49 69° NW 01:46:25 10° NNE
NOSS 3-4 (C) 3.6 01:38:14 50° WSW 01:39:55 70° NW 01:46:30 10° NNE
NOSS 3-2 (A) 3.9 01:33:07 10° NW 01:40:39 74° WSW 01:43:00 49° S
CZ-4C R/B 3.0 01:38:29 10° NW 01:45:33 58° WSW 01:46:52 52° SSW
CZ-2C R/B 3.2 01:44:50 10° N 01:49:44 43° WNW 01:50:19 41° W
PSLV R/B 4.3 01:47:31 10° NNE 01:51:09 42° E 01:51:09 42° E
Cosmos 2278 Rocket 4.4 01:50:51 12° ESE 01:52:28 13° E 01:54:56 10° ENE
Cosmos 2151 Rocket 3.8 01:53:54 63° ENE 01:53:54 63° ENE 01:58:04 10° NNE
COSMOS 2406 4.0 01:50:04 10° NNW 01:55:39 48° ENE 01:58:32 26° ESE
Cosmos 1190 Rocket 4.4 01:53:46 10° N 01:58:56 58° ENE 02:00:13 45° ESE
Cosmos 1943 4.1 02:00:18 10° NW 02:04:54 34° W 02:04:54 34° W
Cosmos 1371 Rocket 4.2 02:07:07 56° WSW 02:07:47 62° WNW 02:13:07 10° NNE
Cosmos 2056 Rocket 3.4 02:08:09 71° SW 02:08:42 82° WNW 02:13:58 10° NNE
RESURS DK-1 3.1 02:09:47 46° NW 02:09:47 46° NW 02:13:35 10° NNE
Cosmos 407 Rocket 3.8 02:07:32 10° NNW 02:12:40 61° ENE 02:14:15 42° SE
Landsat 4 4.3 02:15:01 52° ENE 02:15:01 52° ENE 02:18:38 10° N
Abrixas rocket 3.8 02:17:34 34° NNW 02:17:34 34° NNW 02:20:28 10° NE
Meteor 2-19 Rocket 4.4 02:17:49 54° SSW 02:19:18 80° W 02:25:30 10° N
Cosmos 676 Rocket 4.5 02:17:57 10° N 02:23:04 56° ENE 02:25:17 32° SE
SL-08 R/B 4.1 02:23:18 30° SE 02:25:20 49° ENE 02:30:03 10° N
GP-B 3.9 02:21:49 10° NNE 02:26:05 44° E 02:26:57 39° ESE
NOSS 2-2 (E) 4.5 02:27:12 36° ESE 02:27:15 36° ESE 02:31:31 10° NE
SL-27 R/B 2.9 02:25:54 10° NNW 02:29:13 62° NE 02:29:13 62° NE
Cosmos 1339 Rocket 4.5 02:23:39 10° NNW 02:29:39 64° W 02:31:03 50° SSW
NPP 3.9 02:25:19 10° NNE 02:30:40 60° ESE 02:32:08 44° SSE
Iridium 4 Rocket 3.6 02:34:53 10° NNW 02:39:34 55° W 02:40:12 51° WSW
AQUA 4.1 02:35:23 10° NNE 02:40:05 59° E 02:41:12 46° SSE
Elektron 3 4.4 02:40:56 10° NW 02:52:47 - SSE 02:44:09 68° SW
ERS-2 2.4 02:41:28 10° NNE 02:45:08 57° E 02:45:16 57° ESE
CZ-2D R/B 4.1 02:42:20 10° NE 02:46:26 21° E 02:50:19 11° SE
Cosmos 1954 Rocket 4.1 02:43:37 10° NNW 02:48:48 75° ENE 02:51:23 30° SSE
USA 234 3.3 02:42:31 10° SE 02:49:02 79° NE 02:55:36 10° NW
Cosmos 1300 Rocket 3.4 02:50:51 64° SW 02:51:20 71° W 02:55:42 10° N
Cosmos 1536 4.1 02:50:57 27° SE 02:52:15 34° E 02:55:57 10° NNE
CENTAUR R/B 3.1 02:49:06 10° NNW 02:57:01 86° ENE 03:05:21 10° SE
Cosmos 1535 Rocket 4.4 02:54:40 39° SSW 02:57:09 81° W 03:03:27 10° N
Cosmos 1812 3.2 02:56:18 10° NNW 02:59:48 46° W 02:59:48 46° W
Gbstr 26 Del rocket 2.9 03:00:16 53° W 03:00:59 67° NW 03:04:45 10° NE
USA 161 3.0 03:01:36 29° E 03:02:10 32° ENE 03:04:51 10° N
IRS-1C 4.1 02:59:11 10° NNE 03:04:33 83° ESE 03:06:44 37° S
IRAS Rocket 4.3 03:00:49 10° N 03:06:19 66° WNW 03:08:25 38° SW
Cosmos 1844 Rocket 2.8 03:06:36 38° SW 03:08:44 66° WNW 03:14:23 10° NNE
Cosmos 2263 Rocket 4.4 03:09:45 10° W 03:13:03 16° NW 03:16:22 10° NNW
Cosmos 1452 Rocket 4.0 03:12:45 34° WSW 03:14:33 49° WNW 03:19:40 10° N
ARIANE 5 R/B 3.1 03:10:23 10° NNE 03:15:15 51° E 03:18:07 23° SSE
Cosmos 1023 Rocket 4.4 03:10:17 10° NNW 03:15:24 85° ENE 03:19:05 19° SSE
Meteor 1-11 Rocket 3.8 03:15:58 32° SSW 03:18:56 83° W 03:24:57 10° N
Cosmos 1461 3.1 03:19:20 41° SSW 03:21:00 86° SE 03:25:39 10° NNE
Cosmos 1356 4.1 03:20:41 34° SSE 03:21:51 51° E 03:25:18 10° NNE
Cosmos 1844 3.8 03:20:36 33° SW 03:23:10 68° WNW 03:28:55 10° NNE
Meteor 1-13 Rocket 4.3 03:17:41 10° NNW 03:23:20 65° W 03:26:30 27° S
Cosmos 1420 Rocket 4.0 03:21:23 35° SSW 03:23:43 80° WNW 03:29:02 10° NNE
Resurs 1-4 Rocket 2.9 03:19:02 10° NNE 03:24:10 46° E 03:28:00 17° SSE
CBERS-1 4.4 03:20:22 10° N 03:25:20 50° WNW 03:27:27 31° SW
ATLAS 5 CENTAUR R/B 2.8 03:24:44 10° NNW 03:30:43 66° NE 03:37:05 10° SE
Cosmos 1934 Rocket 4.2 03:29:12 28° SW 03:32:22 56° W 03:38:25 10° N
Cosmos 1400 Rocket 2.8 03:30:49 33° S 03:32:28 76° E 03:36:24 10° NNE
ADEOS 3.7 03:30:08 10° N 03:35:18 61° WNW 03:37:58 28° SW
Cosmos 1633 2.4 03:34:35 41° SSW 03:35:43 77° W 03:39:21 10° N
Cosmos 2278 Rocket 2.2 03:32:42 29° SSW 03:35:44 80° WNW 03:41:27 10° NNE
Okean 1 Rocket 4.3 03:35:29 23° W 03:36:38 26° WNW 03:40:24 10° NNW
Cosmos 1140 Rocket 3.5 03:31:41 10° NNW 03:36:45 61° WSW 03:40:11 20° S
Cosmos 2297 4.2 03:33:17 20° S 03:37:04 54° ESE 03:42:36 10° NNE
Meteor 1-23 Rocket 4.3 03:31:25 10° N 03:37:09 83° E 03:42:39 11° S
COSMOS 2487 2.5 03:34:18 10° NNW 03:37:53 61° WSW 03:39:09 36° S
NOSS 2-2 (D) 4.0 03:36:10 30° WSW 03:37:59 52° NW 03:42:41 10° NNE
COSMOS 2406 4.3 03:35:08 10° NW 03:39:36 24° W 03:40:33 23° WSW
UNK 4.0 03:35:21 10° SSE 03:39:55 70° ENE 03:44:34 10° N
Timation 2 Rocket 3.9 03:42:18 10° NNW 03:48:28 86° ENE 03:54:27 10° SSE
Meteor 1-5 Rocket 4.4 03:44:52 16° S 03:49:42 76° E 03:55:26 10° NNE
Okean O Rocket 3.1 03:49:54 10° NNE 03:53:49 32° E 03:57:44 10° SSE
Cosmos 1025 Rocket 3.6 03:51:07 10° NNW 03:55:07 38° W 03:57:05 24° SW
Cosmos 2082 Rocket 3.0 03:49:31 10° NNW 03:55:09 54° ENE 04:00:43 10° SE
Cosmos 2061 Rocket 4.5 03:49:42 10° S 03:55:54 63° E 04:02:14 10° NNE
MOS 1-B 4.4 03:51:12 10° NNE 03:57:03 79° ESE 04:02:12 14° S
Cosmos 1850 Rocket 4.2 03:51:58 10° NNW 03:57:04 52° WSW 04:01:57 11° S
Cosmos 1455 Rocket 3.0 03:56:20 20° SSW 03:59:23 78° W 04:03:52 10° N
Cosmos 1626 Rocket 4.5 03:55:24 10° N 03:59:40 49° E 04:03:56 10° SSE
Cosmos 1741 Rocket 4.2 03:55:01 10° NNW 04:00:07 51° WSW 04:05:06 10° S
Cosmos 1315 Rocket 2.8 03:58:51 20° SSW 04:01:37 83° WNW 04:05:40 10° N
USA 129 4.2 04:00:51 10° SE 04:02:37 23° ENE 04:04:19 10° NNE
Meteor 2-4 Rocket 3.8 04:02:07 10° NNW 04:07:18 50° W 04:11:57 12° SSW
SL-16 R/B 2.6 04:05:17 10° S 04:11:25 58° W 04:17:32 10° NNW
Meteor 1-12 Rocket 4.5 04:09:19 10° S 04:15:10 75° E 04:20:57 10° NNE
Cosmos 1975 3.0 04:15:20 10° S 04:19:18 71° E 04:23:17 10° NNE
SME Rocket 3.2 04:16:33 11° S 04:20:00 44° W 04:24:00 10° NNW
Cosmos 2016 Rocket 4.3 04:15:01 10° S 04:21:17 72° E 04:27:31 10° NNE
NOSS 5 (C) 4.2 04:20:24 18° SW 04:22:42 71° NW 04:25:47 10° NNE
IRS-1D 4.2 04:20:33 10° N 04:25:11 37° WNW 04:29:09 13° SW
UNKNOWN OBJECT B 3.1 04:21:55 10° N 04:25:55 54° WNW 04:29:31 12° SSW
APEX 2.8 04:24:30 18° SW 04:26:31 58° WNW 04:29:53 10° NNE
Okean 2 4.2 04:22:55 10° NNW 04:26:36 33° W 04:29:56 12° SSW
CZ-2D R/B 2.6 04:21:29 10° N 04:26:43 49° WNW 04:31:39 12° SW
MTI 4.4 04:28:16 10° SSW 04:31:22 37° W 04:34:29 10° NNW
USA 234 4.0 04:27:02 10° S 04:32:25 27° SW 04:37:50 10° WNW
CZ-2C R/B 3.8 04:28:07 10° SSE 04:32:51 85° WSW 04:37:40 10° NNW
Cosmos 1833 Rocket 2.7 04:29:26 10° NNW 04:35:05 89° ENE 04:40:42 10° SSE
PSLV R/B 3.9 04:34:37 10° N 04:38:47 76° WNW 04:42:51 10° SSW
Cosmos 2173 Rocket 4.2 04:39:57 10° SSW 04:45:52 53° W 04:51:55 10° N
Timation 1 Rocket 4.4 04:40:52 10° SSW 04:46:54 88° ESE 04:52:57 10° NNE
CENTAUR R/B 4.2 04:41:20 10° WNW 04:47:03 22° WSW 04:52:53 10° SSW
Cosmos 1174 3.8 04:44:30 10° NW 04:47:46 37° WSW 04:50:38 10° S
Cosmos 1486 Rocket 4.0 04:44:49 10° NNW 04:50:10 81° WSW 04:55:29 10° SSE
Cosmos 2285 Rocket 4.1 04:44:36 10° SSW 04:50:53 82° ESE 04:57:14 10° NNE
Cosmos 2098 Rocket 3.4 04:49:35 10° S 04:53:02 58° E 04:57:24 10° NNE
BREEZE-M DEB (TANK) 4.4 04:47:25 10° SSW 04:53:56 32° SSE 04:56:39 10° E
ARIANE 5 R/B 4.1 04:50:34 10° NNW 04:53:59 19° WNW 04:57:24 10° WSW
Cosmos 1802 Rocket 4.3 04:52:51 10° SSW 04:58:44 48° WNW 05:04:39 10° N
